Location: Maiden
(35.5760°N, 81.2120°W)
Time: 01:11:25
(UTC-04:00)

A-11 Canister half - Pass Details

Date: 12 August 2020
Orbit: 1527 x 1682 km, 47.3° (Epoch: 25 September)

Event Time Altitude Azimuth Distance (km) Brightness Sun altitude
Rises 18:14:25 0° 303° (WNW) 4,933 12.6 23.6°
Reaches altitude 10° 18:17:37 10° 305° (NW) 3,935 12.2 23.0°
Maximum altitude 18:27:46 77° 32° (NNE) 1,683 9.5 20.9°
Drops below altitude 10° 18:37:35 10° 118° (ESE) 3,821 10.6 18.9°
Sets 18:40:38 0° 120° (ESE) 4,784 11.0 18.3°
